Wind_Speed
5 5 4 4 4 5 5 5 5 6 6 7 7 7 7 6 6 5 5 5 4 4 3 2 2 2 2 2 2 2 2 2 2 2 2 2 2 2 1 1 2 2 1
8 7 7 6 6 6 6 7 7 8 8 8 9 9 8 8 7 7 6 6 6 5 5 4 4 3 3 3 3 3 3 2 2 2 2 2 2 2 2 2 2 1 1
8 8 9 8 8 8 8 9 9 9 9 10 10 10 10 9 9 8 8 8 7 7 6 6 5 5 5 4 4 4 4 3 3 3 3 3 4 3 3 3 2 2 2
9 9 10 10 10 10 11 10 10 11 11 11 11 11 11 11 10 10 9 9 8 8 7 7 6 6 6 5 5 5 5 5 4 4 5 5 5 5 4 4 3 3 3
10 10 10 12 12 12 12 12 12 12 13 13 12 12 12 12 12 11 11 10 10 9 8 8 8 7 7 7 7 7 7 6 6 5 5 6 6 6 5 5 5 4 4
11 11 12 13 13 14 14 14 14 14 14 14 14 14 13 13 13 12 12 11 11 10 10 9 9 9 8 8 8 8 8 8 7 7 6 6 6 7 7 6 6 6 6
13 13 13 14 14 15 15 15 16 15 15 15 15 15 15 14 14 13 13 13 12 12 11 11 11 10 10 10 10 10 9 9 9 8 7 8 8 8 8 8 8 8 7
14 14 16 16 15 15 16 17 17 16 17 17 17 16 16 16 15 15 14 14 14 13 13 13 12 11 11 11 11 11 11 11 11 9 9 9 9 9 9 9 9 9 9
15 15 16 17 17 17 17 18 18 18 18 18 19 18 18 17 17 16 16 16 15 15 15 14 14 13 13 13 12 13 12 12 12 12 11 10 10 10 10 10 11 11 11
16 16 16 17 18 19 19 19 20 20 19 20 20 19 19 18 18 17 17 17 17 16 16 15 15 15 14 14 15 14 14 14 14 13 13 12 12 12 12 12 12 12 13
17 18 18 17 18 19 19 19 19 20 20 20 20 20 21 20 19 18 18 18 18 18 17 17 17 16 16 16 16 15 15 15 15 15 14 14 14 14 14 14 14 14 14
18 19 18 18 18 18 18 19 20 20 21 21 21 21 21 22 21 19 18 18 18 18 18 18 18 18 17 17 17 16 16 16 15 14 14 16 15 15 16 16 16 16 15
19 20 19 19 19 18 18 19 20 20 21 21 21 21 21 21 21 21 19 19 19 19 18 18 19 19 19 19 19 18 17 16 16 15 16 17 16 17 17 18 18 17 17
20 20 20 21 21 20 19 19 21 22 22 22 21 20 21 21 20 21 20 20 20 19 19 19 19 19 20 20 19 19 19 19 18 18 17 17 18 18 19 19 19 19 19
20 21 21 21 21 21 21 21 21 22 23 22 20 20 21 21 20 20 21 22 21 21 21 21 21 21 21 22 21 20 21 21 20 20 19 19 20 20 20 20 20 20 20
20 21 21 21 21 21 21 22 22 21 22 23 22 21 21 21 20 20 21 22 21 21 22 22 23 22 22 23 22 22 22 21 21 21 21 21 22 21 21 21 22 21 21
20 21 21 22 22 22 22 23 23 22 22 22 22 23 23 23 22 22 22 22 22 23 24 24 24 24 23 23 23 23 23 23 23 23 23 23 23 23 23 22 22 22 22
20 21 22 22 22 23 23 23 23 23 23 24 24 25 24 24 24 24 24 24 24 24 24 25 25 25 25 25 24 24 24 23 23 23 24 24 24 24 24 24 23 23 23
20 21 22 23 23 23 23 23 24 24 24 24 24 25 25 25 25 25 25 25 25 26 26 26 26 26 26 25 25 25 25 25 25 25 25 25 25 26 25 25 25 25 24
20 21 22 23 23 22 23 23 23 23 23 24 24 25 26 26 26 26 26 27 27 27 27 28 28 27 27 27 26 26 26 26 26 25 26 27 27 27 27 26 26 26 26
21 21 22 22 22 23 22 22 23 23 24 24 24 25 26 27 27 27 28 28 29 29 27 28 28 27 27 27 27 27 27 28 28 27 27 27 28 28 28 28 28 27 27
21 22 22 23 24 24 24 24 24 25 25 25 26 26 27 27 27 28 29 30 29 30 29 28 28 28 28 28 28 28 28 28 28 28 28 28 27 28 28 28 28 28 28
23 23 24 24 25 25 25 25 26 27 27 27 27 27 27 26 27 28 30 31 31 31 30 31 30 30 30 30 30 30 29 28 27 27 28 28 28 29 28 28 28 28 28
22 23 24 25 25 26 25 26 27 28 28 28 28 29 29 29 29 30 31 31 32 32 32 32 32 31 31 31 31 31 31 30 28 27 28 28 28 28 29 28 28 28 29
23 24 24 24 25 25 25 26 27 28 30 30 30 30 29 30 31 31 31 32 32 31 32 32 32 32 31 31 31 30 30 30 30 29 28 28 28 28 29 29 29 29 29
23 24 24 25 24 25 26 26 28 29 30 30 30 29 30 30 31 31 31 32 32 31 32 33 33 32 31 31 31 31 30 30 30 30 29 29 29 29 29 29 28 28 28
Wind_Direction
280 276 269 261 256 252 251 251 251 253 257 261 263 265 263 264 265 263 265 264 264 272 278 282 290 306 313 322 332 337 346 355 357 345 340 337 332 330 340 358 3 6 348
278 279 274 265 260 258 257 256 259 258 258 260 262 265 263 262 263 262 263 264 265 270 276 276 277 284 294 302 307 305 307 313 318 312 304 295 294 296 299 309 324 327 322
279 280 279 272 266 264 264 263 263 263 262 261 264 265 265 263 262 262 262 263 265 268 275 277 277 280 284 289 292 292 293 295 292 292 289 283 281 278 281 285 292 288 290
280 278 277 276 273 270 268 266 265 265 264 264 263 264 264 263 263 263 262 263 264 268 270 272 273 277 278 280 283 283 286 289 286 281 278 275 276 273 274 277 283 284 277
277 272 275 276 274 273 268 265 266 266 265 264 262 261 261 261 262 262 262 264 264 267 269 270 271 273 273 275 278 277 277 280 280 276 270 270 271 270 276 274 276 281 278
278 278 279 279 275 272 269 267 265 266 263 263 262 261 260 261 262 263 263 264 265 266 268 270 271 271 272 272 276 276 275 278 278 276 274 273 273 273 275 271 270 273 273
279 281 286 285 282 276 271 270 268 266 264 263 263 261 261 262 263 264 264 265 265 266 269 270 269 269 272 274 276 277 277 276 277 277 278 278 269 266 270 267 265 267 265
282 283 286 285 283 277 273 271 268 267 266 265 264 262 262 262 263 264 264 266 267 268 268 268 265 268 270 272 274 277 277 274 274 272 272 274 271 267 270 265 263 263 262
287 286 288 286 279 276 273 271 267 266 267 265 263 262 261 261 262 264 263 264 265 266 268 266 266 268 270 272 275 277 275 272 269 269 267 269 270 268 268 267 266 263 262
289 290 289 285 280 276 274 272 269 267 267 266 261 260 260 260 262 264 264 265 265 264 264 264 264 266 268 270 273 275 274 270 268 267 266 265 266 267 268 269 268 265 262
293 295 293 287 283 280 278 272 269 267 268 266 261 260 259 260 261 263 265 265 265 263 263 263 264 265 267 269 271 273 271 271 271 268 265 262 263 268 270 271 269 266 263
295 295 293 289 285 282 279 274 269 267 269 267 264 265 262 260 259 262 263 265 264 263 263 263 265 266 267 269 270 271 270 269 269 268 269 266 267 270 270 271 270 268 266
294 294 293 290 288 286 282 276 273 268 269 266 265 268 268 263 261 262 263 265 265 265 264 264 267 267 268 270 269 270 271 269 266 263 263 268 270 269 271 270 270 267 266
293 292 292 290 289 288 287 283 281 275 271 271 268 268 269 267 266 264 264 266 267 267 267 266 267 268 269 270 268 269 270 270 270 266 263 267 270 269 269 270 270 269 268
291 292 292 289 289 287 285 285 283 278 272 270 272 270 270 270 271 269 269 269 268 268 266 265 266 266 268 270 270 272 270 269 269 267 264 264 266 269 269 270 270 270 269
289 288 289 288 287 286 285 283 282 279 277 275 271 270 272 273 273 272 271 271 271 270 268 266 267 269 271 270 271 272 271 270 270 270 268 266 267 269 271 269 269 269 269
287 287 287 287 286 285 284 284 283 280 278 278 274 273 275 275 275 276 276 274 273 273 272 271 272 272 274 273 273 273 273 272 271 270 269 268 268 270 271 270 270 270 270
285 287 287 287 286 286 285 285 283 280 279 279 276 274 276 275 276 274 275 275 276 275 274 273 273 273 274 274 275 275 275 273 270 270 269 269 268 269 270 269 270 271 271
283 285 284 286 286 285 285 284 284 281 281 281 279 277 278 277 276 275 275 276 277 276 274 273 273 274 274 275 276 275 274 274 273 270 269 270 270 269 270 270 270 270 270
284 285 285 286 286 286 286 285 284 283 283 283 280 279 278 277 276 274 274 276 276 277 276 274 273 273 274 275 275 275 274 272 272 271 270 270 270 270 272 271 270 269 270
286 287 287 288 288 288 288 287 286 285 284 285 283 281 280 278 276 274 275 276 276 277 276 274 274 274 274 275 275 275 275 272 271 270 271 271 270 271 272 273 271 270 270
285 287 287 288 288 287 286 287 288 288 286 285 284 283 282 279 276 275 274 275 275 276 276 275 276 275 275 275 275 274 273 274 273 271 271 272 272 272 273 273 274 273 271
284 285 287 288 286 286 287 288 288 288 287 286 285 284 282 280 278 276 275 275 275 275 276 276 275 275 275 275 275 275 275 274 273 272 273 274 274 273 273 272 272 275 273
285 286 288 287 286 286 288 288 287 288 288 286 286 285 283 282 281 280 278 276 276 276 276 275 274 275 275 274 274 275 275 275 274 272 272 273 272 273 274 272 272 273 273
285 287 290 288 287 288 290 289 288 289 289 288 288 286 285 284 284 283 280 278 278 277 276 276 275 275 275 274 273 274 274 274 275 273 273 273 273 272 273 273 272 273 273
285 286 288 290 288 289 290 290 290 292 290 289 289 286 285 285 285 284 283 280 279 277 277 276 274 273 273 273 273 273 273 273 273 274 273 272 273 274 273 274 273 273 275
Height
5910 5910 5910 5910 5910 5910 5910 5910 5910 5910 5910 5910 5910 5910 5909 5909 5909 5909 5908 5908 5908 5907 5907 5906 5906 5905 5905 5904 5904 5904 5903 5903 5903 5903 5903 5903 5903 5903 5903 5903 5903 5903 5903
5909 5909 5909 5909 5909 5909 5909 5909 5909 5909 5909 5909 5909 5908 5908 5908 5908 5908 5907 5907 5907 5907 5906 5906 5905 5905 5904 5904 5903 5903 5903 5903 5903 5903 5903 5903 5903 5903 5903 5903 5903 5903 5903
5909 5908 5908 5908 5908 5908 5908 5908 5908 5908 5907 5907 5907 5907 5907 5907 5907 5907 5906 5906 5906 5905 5905 5905 5904 5904 5904 5903 5903 5902 5902 5902 5902 5902 5902 5902 5902 5902 5902 5902 5902 5902 5902
5907 5907 5907 5907 5907 5907 5907 5906 5906 5906 5906 5905 5905 5905 5905 5905 5905 5905 5905 5905 5904 5904 5904 5903 5903 5903 5903 5903 5902 5902 5902 5901 5901 5901 5902 5901 5901 5901 5901 5902 5902 5902 5902
5906 5906 5906 5905 5905 5905 5904 5904 5904 5904 5904 5904 5903 5903 5903 5903 5903 5903 5903 5903 5903 5902 5902 5902 5902 5902 5902 5901 5901 5901 5901 5901 5900 5900 5901 5900 5899 5900 5900 5901 5901 5901 5901
5904 5904 5903 5903 5903 5902 5902 5902 5902 5901 5901 5901 5901 5901 5901 5901 5901 5901 5901 5901 5901 5900 5900 5900 5900 5900 5900 5900 5900 5899 5899 5899 5899 5899 5900 5899 5898 5899 5899 5900 5900 5900 5900
5902 5902 5901 5901 5901 5900 5900 5899 5899 5899 5899 5898 5898 5898 5898 5898 5898 5898 5899 5898 5898 5898 5898 5898 5898 5898 5898 5898 5898 5898 5897 5897 5897 5898 5898 5898 5898 5898 5898 5898 5899 5899 5899
5900 5900 5899 5899 5898 5898 5897 5896 5896 5896 5896 5895 5895 5895 5896 5896 5896 5896 5896 5896 5896 5896 5896 5896 5896 5896 5896 5896 5896 5896 5896 5895 5895 5896 5896 5896 5896 5896 5896 5897 5897 5898 5898
5897 5897 5896 5895 5895 5894 5894 5893 5892 5892 5892 5892 5892 5892 5892 5893 5893 5893 5893 5893 5893 5893 5893 5893 5893 5893 5894 5894 5894 5893 5893 5893 5893 5893 5894 5894 5894 5895 5895 5895 5896 5896 5896
5893 5892 5892 5891 5891 5890 5890 5889 5889 5889 5889 5889 5889 5889 5889 5889 5889 5889 5889 5890 5890 5890 5890 5890 5890 5890 5891 5891 5891 5891 5890 5890 5890 5891 5891 5891 5892 5892 5893 5893 5893 5894 5894
5891 5890 5889 5888 5887 5886 5886 5885 5886 5886 5885 5885 5885 5885 5885 5885 5885 5885 5885 5886 5886 5887 5887 5887 5887 5887 5887 5887 5888 5888 5888 5887 5888 5888 5888 5888 5888 5889 5890 5890 5891 5891 5891
5888 5887 5886 5885 5883 5883 5882 5881 5881 5881 5881 5881 5881 5881 5881 5881 5882 5881 5882 5882 5882 5883 5883 5884 5884 5884 5884 5884 5884 5884 5885 5884 5885 5885 5885 5885 5885 5885 5886 5887 5888 5888 5888
5884 5883 5883 5882 5880 5880 5879 5878 5877 5877 5877 5877 5877 5877 5877 5877 5878 5878 5878 5878 5878 5879 5879 5880 5880 5880 5881 5881 5881 5881 5881 5881 5882 5882 5882 5881 5881 5881 5883 5884 5884 5884 5885
5881 5880 5879 5878 5877 5876 5875 5875 5874 5874 5874 5874 5874 5873 5873 5874 5874 5874 5874 5874 5874 5875 5875 5876 5876 5876 5877 5877 5877 5877 5877 5877 5878 5879 5878 5878 5878 5878 5879 5880 5880 5881 5881
5878 5877 5876 5875 5874 5873 5873 5872 5871 5870 5870 5870 5869 5869 5869 5869 5869 5870 5870 5869 5870 5870 5871 5871 5871 5872 5872 5873 5873 5873 5873 5873 5874 5874 5875 5875 5874 5875 5875 5876 5876 5877 5877
5874 5873 5873 5872 5871 5870 5869 5869 5868 5867 5866 5865 5865 5865 5865 5865 5865 5865 5865 5865 5865 5865 5866 5866 5866 5867 5867 5868 5868 5868 5868 5868 5869 5869 5869 5871 5871 5870 5871 5871 5872 5872 5872
5870 5870 5869 5868 5867 5867 5866 5865 5864 5863 5862 5861 5861 5861 5861 5861 5861 5860 5860 5859 5860 5860 5861 5861 5861 5862 5862 5862 5863 5863 5863 5863 5864 5864 5864 5865 5866 5866 5866 5866 5867 5867 5867
5866 5866 5865 5864 5863 5862 5861 5860 5860 5859 5858 5858 5857 5857 5856 5856 5856 5856 5856 5855 5855 5855 5855 5855 5856 5856 5856 5857 5857 5857 5858 5858 5858 5858 5859 5859 5860 5860 5861 5861 5861 5862 5862
5863 5862 5860 5860 5859 5858 5857 5856 5855 5854 5854 5853 5853 5852 5852 5851 5851 5850 5851 5850 5850 5850 5850 5850 5850 5850 5850 5850 5851 5851 5852 5852 5853 5853 5853 5853 5854 5854 5855 5855 5856 5856 5857
5859 5858 5856 5856 5855 5854 5852 5851 5851 5850 5849 5848 5848 5847 5846 5846 5845 5845 5845 5845 5844 5844 5844 5844 5844 5844 5844 5844 5844 5845 5845 5846 5846 5847 5847 5847 5847 5848 5849 5849 5850 5850 5851
5855 5854 5853 5852 5851 5849 5848 5847 5846 5845 5845 5844 5843 5842 5841 5840 5840 5839 5839 5838 5838 5838 5837 5837 5837 5837 5837 5837 5838 5838 5839 5839 5840 5840 5840 5840 5841 5841 5842 5842 5843 5844 5844
5851 5850 5849 5848 5847 5845 5844 5843 5841 5841 5840 5839 5838 5836 5835 5834 5833 5832 5832 5832 5831 5831 5830 5830 5830 5830 5830 5830 5831 5831 5832 5833 5833 5833 5833 5834 5834 5834 5835 5836 5836 5837 5837
5847 5846 5844 5843 5842 5840 5839 5838 5837 5835 5834 5833 5832 5830 5829 5828 5827 5826 5825 5824 5824 5824 5823 5823 5823 5823 5823 5823 5823 5824 5824 5825 5826 5826 5826 5827 5827 5827 5828 5829 5829 5830 5830
5842 5841 5839 5838 5836 5835 5834 5833 5831 5830 5829 5827 5826 5824 5823 5821 5820 5819 5818 5817 5816 5816 5815 5815 5814 5814 5815 5815 5815 5815 5816 5817 5818 5819 5819 5819 5820 5820 5821 5822 5822 5823 5823
5838 5836 5834 5833 5831 5830 5829 5827 5826 5824 5822 5820 5819 5817 5816 5814 5813 5811 5810 5809 5808 5807 5807 5806 5806 5806 5806 5807 5807 5808 5808 5808 5809 5810 5811 5812 5812 5813 5814 5814 5815 5815 5816
5832 5831 5829 5828 5826 5825 5823 5822 5820 5817 5815 5813 5812 5810 5808 5807 5805 5803 5801 5800 5800 5799 5798 5797 5797 5797 5798 5798 5798 5799 5800 5800 5801 5802 5803 5804 5805 5806 5806 5807 5808 5808 5808